This is the latest recevied weather packets stored in our database for station/object SP7QPD-1. If no packets are shown the sender has not sent any weather packets the latest 10 day(s).
| Time | Temp. | Humidity | Pressure | Rain* | Wind** | Luminosity | Snow |
|---|---|---|---|---|---|---|---|
| 1777825373 | 25° C | 31% | 1012.1 hPa | 0 mm | - | - | - |
| 1777824173 | 25° C | 31% | 1012.3 hPa | 0 mm | - | - | - |
| 1777823573 | 25.56° C | 31% | 1012.4 hPa | 0 mm | - | - | - |
| 1777822973 | 25.56° C | 31% | 1012.3 hPa | 0 mm | - | - | - |
| 1777822373 | 26.11° C | 31% | 1012.3 hPa | 0 mm | - | - | - |
| 1777821773 | 26.11° C | 30% | 1012.5 hPa | 0 mm | - | - | - |
| 1777821173 | 26.67° C | 31% | 1012.6 hPa | 0 mm | - | - | - |
| 1777820573 | 26.67° C | 31% | 1012.7 hPa | 0 mm | - | - | - |
| 1777819973 | 27.22° C | 31% | 1012.9 hPa | 0 mm | - | - | - |
| 1777819373 | 27.22° C | 30% | 1013.1 hPa | 0 mm | - | - | - |
| 1777818772 | 26.67° C | 31% | 1013 hPa | 0 mm | - | - | - |
| 1777818172 | 26.67° C | 30% | 1013.1 hPa | 0 mm | - | - | - |
| 1777817572 | 27.22° C | 30% | 1013.2 hPa | 0 mm | - | - | - |
| 1777816972 | 27.22° C | 29% | 1013.4 hPa | 0 mm | - | - | - |
| 1777816372 | 26.67° C | 30% | 1013.3 hPa | 0 mm | - | - | - |
| 1777815772 | 26.67° C | 30% | 1013.4 hPa | 0 mm | - | - | - |
| 1777815172 | 26.67° C | 30% | 1013.8 hPa | 0 mm | - | - | - |
| 1777814572 | 26.67° C | 30% | 1013.8 hPa | 0 mm | - | - | - |
| 1777813972 | 26.67° C | 30% | 1014 hPa | 0 mm | - | - | - |
| 1777813372 | 26.67° C | 30% | 1014.2 hPa | 0 mm | - | - | - |
| 1777812772 | 26.67° C | 31% | 1014.3 hPa | 0 mm | - | - | - |
| 1777812171 | 26.11° C | 31% | 1014.5 hPa | 0 mm | - | - | - |
| 1777811571 | 26.11° C | 31% | 1014.3 hPa | 0 mm | - | - | - |
| 1777810971 | 25.56° C | 32% | 1014.5 hPa | 0 mm | - | - | - |
| 1777810371 | 25.56° C | 31% | 1014.7 hPa | 0 mm | - | - | - |
* Rain latest hour (hover to see other rain measurements)
** Current wind speed in m/s (hover to see current wind gust speed)